Regional Weather Roundup
Issued by NWS Sterling, VA

Home | Current Version | Previous Version | Graphics & Text | Print | Product List | Glossary On
Versions: 1 2 3 4 5 6 7 8 9 10 11 12 13 14 15 16 17 18 19 20 21 22 23 24 25 26 27
000
ASUS41 KLWX 191510
RWRLWX

REGIONAL WEATHER ROUNDUP
NATIONAL WEATHER SERVICE BALTIMORE MD/WASHINGTON DC
1000 AM EST SUN FEB 19 2017

Note: "FAIR" indicates few or no clouds below 12,000 feet
with no significant weather and/or obstructions to visibility.
 TC=TEMPERATURE CELSIUS

 * =Non NWS site. Station does not report precipitation (e.g. rain,
    snow, etc.), thunder, or fog.

DCZ001-MDZ009-015-VAZ040>042-051-053>054-191600-
WASHINGTON METRO

CITY           SKY/WX    TMP DP  RH WIND       PRES   REMARKS
WASHINGTON NAT CLOUDY    61  45  55 NW12      29.92R
DULLES         CLOUDY    58  43  57 NW16      29.93R
ANDREWS AFB    CLOUDY    60  43  54 NW13      29.90R
FT BELVOIR     CLOUDY    59  44  56 NW9       29.92R
QUANTICO       CLOUDY    59  48  67 N6        29.93R
COLLEGE PARK*  CLOUDY    59  43  55 NW7       29.91R
LEESBURG*      CLOUDY    59  46  63 NW10      29.94S
MANASSAS*      CLOUDY    60  46  59 NW10      29.93R
GAITHERSBURG*  CLOUDY    57  41  54 NW17      29.95R

$$

MDZ006>007-011-014-191600-
BALTIMORE METRO

CITY           SKY/WX    TMP DP  RH WIND       PRES   REMARKS
BWI AIRPORT    PTSUNNY   61  43  51 NW10      29.89R
MD SCIENCE CTR   N/A     62  41  46 MISG      29.90R
MARTIN STATE   PTSUNNY   64  46  52 W10       29.90R
ANNAPOLIS      CLOUDY    60  43  53 NW8       29.89R
FORT MEADE*    CLOUDY    59  43  55 NW6       29.93R

$$

MDZ012-015-019>023-191600-
MARYLAND EASTERN SHORE

CITY           SKY/WX    TMP DP  RH WIND       PRES   REMARKS
OCEAN CITY     PTSUNNY   67  41  38 NW15G23   29.87R
SALISBURY      CLOUDY    63  43  48 NW9       29.88R
BAY BRIDGE AP* CLOUDY    57  43  58 NW9       29.89R
CAMBRIDGE*     MOSUNNY   57  43  58 NW7       29.89R

$$

MDZ017>025-191600-
SOUTHERN MARYLAND

CITY           SKY/WX    TMP DP  RH WIND       PRES   REMARKS
PATUXENT RIVER PTSUNNY   59  46  62 NW10      29.90R
ST INIGOES     CLOUDY    57  43  59 W3        29.90R
LEONARDTOWN*   CLOUDY    63  43  48 NW5       29.91R

$$

MDZ003>005-191600-
NORTH CENTRAL MARYLAND

CITY           SKY/WX    TMP DP  RH WIND       PRES   REMARKS
FREDERICK*     MOSUNNY   57  45  62 W12G17    29.95R
HAGERSTOWN APT SUNNY     59  43  55 W13       29.93R
WESTMINSTER*   SUNNY     59  45  58 W13       29.91R

$$

MDZ501>502-191600-
WESTERN MARYLAND

CITY           SKY/WX    TMP DP  RH WIND       PRES   REMARKS
OAKLAND*       FOG       39  39 100 W7G16     29.98R VSB<1/4
CUMBERLAND*    MOSUNNY   55  43  62 W8G23     30.02R

$$

VAZ025>031-191600-
SHENANDOAH VALLEY

CITY           SKY/WX    TMP DP  RH WIND       PRES   REMARKS
WINCHESTER*    SUNNY     55  43  62 W13G20    29.95S
FRONT ROYAL*   MOSUNNY   57  46  67 W3        29.94S
LURAY*         MOSUNNY   59  48  67 SW7       29.96S
NEW MARKET*    SUNNY     59  44  57 SW5       29.96S
STAUNTON*      SUNNY     57  43  58 CALM      29.99S
WAYNESBORO*    SUNNY     57  41  54 W6        29.98R

$$

WVZ021-048>050-054>055-191600-
EASTERN WEST VIRGINIA PANHANDLE

CITY           SKY/WX    TMP DP  RH WIND       PRES   REMARKS
MARTINSBURG    MOSUNNY   59  43  55 W14       29.94R
PETERSBURG*    SUNNY     58  45  62 W8        29.99S

$$

VAZ036>039-050-191600-
CENTRAL FOOTHILLS

CITY           SKY/WX    TMP DP  RH WIND       PRES   REMARKS
CHARLOTTESVILL SUNNY     65  44  46 NW10      29.94R
CULPEPER*      MOSUNNY   64  48  54 N9        29.94R
ORANGE*        SUNNY     63  46  55 CALM      29.95R
GORDONSVILLE*  SUNNY     64  45  50 CALM      29.93R
WARRENTON*     CLOUDY    66  41  39 NW13      29.92S

$$

VAZ055>057-191600-
NORTH AND CENTRAL PIEDMONT

CITY           SKY/WX    TMP DP  RH WIND       PRES   REMARKS
FREDERICKSBRG* PTSUNNY   64  48  54 N9        29.91R
STAFFORD*      CLOUDY    62  47  58 NW12      29.96R

$$

NCZ024-NYZ072-PAZ021-071-VAZ022-071-191600-
OTHER REGIONAL OBSERVATIONS

CITY           SKY/WX    TMP DP  RH WIND       PRES   REMARKS
NEW YORK CITY  CLOUDY    58  36  43 W7        29.83S
PHILADELPHIA   CLOUDY    60  39  45 NW10      29.88R
PITTSBURGH     PTSUNNY   50  44  80 W8        29.99R
ROANOKE        PTSUNNY   56  42  59 NW15G21   30.03R
RICHMOND       MOSUNNY   64  44  48 N12G18    29.92R
RALEIGH        SUNNY     63  41  44 N10       29.98R

$$

ANZ530>537-191600-
MARINE OBSERVATIONS

STATION/POSITION TIME  TEMP    WIND        PRES
                       AIR SEA DIR/SP/G
                 (UTC) (F)     (DEG/KT/KT) (MB)
THOMAS PT LIGHT  1500   59 39  310/ 14/ 17   N/A
BALT KEY BRIDGE  1442   59     300/  7/  8 1012.2R
COVE POINT       1442   55     350/ 12/ 13 1012.7R
LEWISETTA        1442   58 42  330/  6/  8 1012.1R
SOLOMONS ISLAND  1442   59 42  330/  4/  7   N/A
PINEY POINT      1448          320/  5/  5   N/A

$$





USA.gov is the U.S. government's official web portal to all federal, state and local government web resources and services.